DB0EJ Weather Reports


Display with metric or nautical units.
time (UTC)temp
F
wind
direction
speed
MPH
gust
MPH
rain 1hr
in
rain 24hr
in
rain mn
in
humidity
%
barometer
mb
20200405094731 56 337 8.0 17.0 0.02 0.08 0.00 43 1018.3
20200405094231 56 337 3.0 19.0 0.02 0.08 0.00 43 1018.3
20200405093731 56 315 17.0 19.0 0.02 0.08 0.00 43 1018.5
20200405093230 56 337 18.0 20.0 0.02 0.08 0.00 44 1018.5
20200405092730 55 315 16.0 18.0 0.02 0.08 0.00 44 1018.6
20200405092230 55 337 9.0 15.0 0.00 0.06 0.00 45 1018.7
20200405091730 55 22 0.0 11.0 0.00 0.06 0.00 46 1018.7
20200405091305 55 337 11.0 14.0 0.00 0.06 0.00 46 1018.7
20200405091229 55 337 11.0 14.0 0.00 0.06 0.00 46 1018.7
20200405090729 55 0 4.0 5.0 0.00 0.06 0.00 47 1018.8
20200405090229 54 22 3.0 15.0 0.00 0.06 0.00 47 1018.9
20200405085728 54 0 13.0 14.0 0.00 0.06 0.00 49 1019.0
20200405085228 53 0 11.0 11.0 0.00 0.06 0.00 49 1019.0
20200405084728 53 45 0.0 18.0 0.00 0.06 0.00 49 1019.0
20200405084227 53 45 0.0 15.0 0.00 0.06 0.00 50 1019.0
20200405083727 52 22 4.0 13.0 0.00 0.06 0.00 50 1019.1
20200405083227 52 0 5.0 14.0 0.00 0.06 0.00 51 1019.2
20200405082727 51 337 5.0 12.0 0.00 0.06 0.00 52 1019.3
20200405082226 51 337 7.0 11.0 0.00 0.06 0.00 53 1019.2
20200405081726 50 67 0.0 10.0 0.00 0.06 0.00 54 1019.2
20200405081226 50 0 0.0 5.0 0.00 0.06 0.00 55 1019.3
20200405080725 50 157 1.0 8.0 0.00 0.06 0.00 56 1019.4
20200405080225 49 135 0.0 9.0 0.00 0.06 0.00 56 1019.4
20200405075725 49 0 5.0 12.0 0.00 0.06 0.00 57 1019.5
20200405075224 48 337 4.0 9.0 0.00 0.06 0.00 57 1019.5
20200405074724 48 45 0.0 5.0 0.00 0.06 0.00 58 1019.4
20200405074224 48 157 0.0 6.0 0.00 0.06 0.00 58 1019.3
20200405073724 48 247 1.0 2.0 0.00 0.06 0.00 58 1019.3
20200405073223 47 202 0.0 7.0 0.00 0.06 0.00 59 1019.4
20200405072723 47 292 0.0 3.0 0.00 0.06 0.00 59 1019.3
20200405072223 47 90 0.0 6.0 0.00 0.06 0.00 59 1019.2
20200405071722 46 337 0.0 4.0 0.00 0.06 0.00 60 1019.3
20200405071222 46 247 0.0 4.0 0.00 0.06 0.00 60 1019.2
20200405070722 46 247 5.0 5.0 0.00 0.06 0.00 60 1019.3
20200405070222 46 67 0.0 6.0 0.00 0.06 0.00 61 1019.2
20200405065721 46 270 0.0 5.0 0.00 0.06 0.00 61 1019.2
20200405065221 46 270 0.0 7.0 0.00 0.06 0.00 61 1019.3
20200405064721 45 135 0.0 7.0 0.00 0.06 0.00 61 1019.2
20200405064220 45 135 0.0 4.0 0.00 0.06 0.00 61 1019.2
20200405063720 45 270 0.0 4.0 0.00 0.06 0.00 62 1019.2
20200405063220 45 112 4.0 7.0 0.00 0.06 0.00 62 1019.2
20200405062720 45 112 0.0 7.0 0.00 0.06 0.00 62 1019.1
20200405062219 44 247 2.0 8.0 0.00 0.06 0.00 62 1019.1
20200405061719 44 270 8.0 8.0 0.00 0.06 0.00 62 1019.2
20200405061219 44 247 5.0 8.0 0.00 0.06 0.00 62 1019.1
20200405060718 44 135 2.0 7.0 0.00 0.06 0.00 62 1019.0
20200405060218 44 112 0.0 9.0 0.00 0.06 0.00 62 1019.0
20200405055718 44 180 4.0 9.0 0.00 0.06 0.00 62 1019.0
20200405055217 44 247 0.0 7.0 0.00 0.06 0.00 63 1018.9
20200405054717 43 270 0.0 10.0 0.00 0.06 0.00 63 1019.0
20200405054217 43 247 5.0 6.0 0.00 0.06 0.00 63 1018.9
20200405053717 43 247 6.0 10.0 0.00 0.06 0.00 63 1018.9
20200405053216 43 292 2.0 10.0 0.00 0.06 0.00 63 1018.9
20200405052716 43 292 0.0 8.0 0.00 0.06 0.00 63 1018.9
20200405052216 43 292 8.0 8.0 0.00 0.06 0.00 63 1018.8
20200405051715 43 292 2.0 8.0 0.00 0.06 0.00 62 1018.7
20200405051215 43 22 0.0 7.0 0.00 0.06 0.00 62 1018.7
20200405050715 44 270 3.0 10.0 0.00 0.06 0.00 62 1018.6
20200405050214 44 292 8.0 9.0 0.00 0.06 0.00 62 1018.5
20200405045714 44 292 2.0 6.0 0.00 0.06 0.00 62 1018.6
20200405045214 44 315 0.0 7.0 0.00 0.06 0.00 61 1018.4
20200405044714 44 270 0.0 7.0 0.00 0.06 0.00 61 1018.4
20200405044214 44 247 0.0 6.0 0.00 0.06 0.00 61 1018.3
20200405043713 44 270 2.0 6.0 0.00 0.06 0.00 61 1018.3
20200405043213 44 270 1.0 5.0 0.00 0.06 0.00 61 1018.2
20200405042712 44 292 5.0 6.0 0.00 0.06 0.00 61 1018.1
20200405042212 44 270 5.0 5.0 0.00 0.06 0.00 61 1018.1
20200405041712 44 270 0.0 7.0 0.00 0.06 0.00 61 1018.0
20200405041212 44 292 6.0 12.0 0.02 0.06 0.00 61 1018.0
20200405040711 44 292 2.0 9.0 0.02 0.06 0.00 61 1018.1
20200405040211 44 270 6.0 9.0 0.02 0.06 0.00 61 1018.1
20200405035711 44 270 6.0 10.0 0.02 0.06 0.00 60 1018.1
20200405035210 44 270 8.0 8.0 0.02 0.06 0.00 61 1018.1
20200405034710 44 292 4.0 8.0 0.02 0.06 0.00 60 1018.1
20200405034210 44 247 5.0 9.0 0.02 0.06 0.00 60 1018.0
20200405033710 44 292 3.0 5.0 0.02 0.06 0.00 60 1018.0
20200405033209 44 270 2.0 8.0 0.02 0.06 0.00 60 1017.9
20200405032709 44 270 8.0 8.0 0.02 0.06 0.00 60 1018.0
20200405032209 44 292 5.0 6.0 0.02 0.06 0.00 60 1017.9
20200405031708 44 270 4.0 11.0 0.04 0.06 0.00 60 1017.9
20200405031208 44 270 6.0 8.0 0.02 0.04 0.00 60 1017.8
20200405030708 45 270 4.0 10.0 0.02 0.04 0.00 60 1017.9
20200405030207 45 292 5.0 8.0 0.02 0.04 0.00 59 1017.9
20200405025707 45 270 4.0 9.0 0.02 0.04 0.00 59 1018.0
20200405025207 45 292 7.0 7.0 0.02 0.04 0.00 59 1017.9
20200405024707 45 247 4.0 7.0 0.02 0.04 0.00 59 1017.9
20200405024206 45 292 5.0 11.0 0.02 0.04 0.00 59 1017.8
20200405023706 45 270 5.0 7.0 0.02 0.04 0.00 59 1017.9
20200405023206 45 292 6.0 11.0 0.04 0.04 0.00 59 1017.9
20200405022705 45 270 5.0 9.0 0.04 0.04 0.00 58 1017.9
20200405022205 45 270 4.0 11.0 0.02 0.02 0.00 58 1017.9
20200405021705 46 292 4.0 11.0 0.02 0.02 0.00 58 1017.9
20200405021204 46 292 7.0 9.0 0.02 0.02 0.00 58 1017.8
20200405020704 46 270 7.0 10.0 0.02 0.02 0.00 58 1017.7
20200405020204 46 292 8.0 9.0 0.02 0.02 0.00 57 1017.8
20200405015704 46 270 8.0 11.0 0.02 0.02 0.00 57 1017.8
20200405015203 46 270 5.0 10.0 0.02 0.02 0.00 57 1017.9
20200405014703 46 270 3.0 10.0 0.02 0.02 0.00 57 1017.8
20200405014203 46 292 2.0 11.0 0.02 0.02 0.00 57 1017.8
20200405013702 46 270 5.0 11.0 0.00 0.00 0.00 57 1017.8
20200405013202 46 270 5.0 12.0 0.00 0.00 0.00 57 1017.9
20200405012702 46 270 6.0 7.0 0.00 0.00 0.00 57 1017.7
20200405012202 46 270 0.0 8.0 0.00 0.00 0.00 57 1017.9
20200405011701 46 270 5.0 9.0 0.00 0.00 0.00 57 1017.9
20200405011201 46 247 2.0 10.0 0.00 0.00 0.00 57 1018.0
20200405010701 46 292 10.0 10.0 0.00 0.00 0.00 57 1017.9
20200405010200 46 292 3.0 10.0 0.00 0.00 0.00 57 1018.0
20200405005700 46 292 5.0 6.0 0.00 0.00 0.00 57 1018.0
20200405005200 46 292 3.0 7.0 0.00 0.00 0.00 57 1018.0
20200405004659 46 270 4.0 6.0 0.00 0.00 0.00 57 1018.0
20200405004159 46 270 5.0 7.0 0.00 0.00 0.00 57 1018.1
20200405003659 46 292 5.0 8.0 0.00 0.00 0.00 57 1018.1
20200405003159 46 270 4.0 8.0 0.00 0.00 0.00 57 1018.1
20200405002658 46 270 6.0 6.0 0.00 0.00 0.00 57 1018.1
20200405002158 46 270 6.0 6.0 0.00 0.00 0.00 57 1018.1
20200405001658 47 270 4.0 9.0 0.00 0.00 0.00 56 1018.3
20200405001157 47 270 5.0 10.0 0.00 0.00 0.00 56 1018.3
20200405000657 47 270 4.0 10.0 0.00 0.00 0.00 56 1018.3
20200405000157 47 292 6.0 8.0 0.00 0.00 0.00 56 1018.3
20200404235657 47 270 6.0 8.0 0.00 0.00 0.00 56 1018.4
20200404235156 47 292 2.0 8.0 0.00 0.00 0.00 56 1018.4
20200404234656 47 270 6.0 6.0 0.00 0.00 0.00 56 1018.3
20200404234156 47 270 5.0 6.0 0.00 0.00 0.00 56 1018.4
20200404233655 47 270 6.0 6.0 0.00 0.00 0.00 55 1018.3
20200404233155 47 270 2.0 6.0 0.00 0.00 0.00 55 1018.3
20200404232655 47 270 3.0 7.0 0.00 0.00 0.00 55 1018.3
20200404232154 48 270 5.0 8.0 0.00 0.00 0.00 54 1018.3
20200404231654 48 270 5.0 8.0 0.00 0.00 0.00 54 1018.2
20200404231154 48 270 6.0 10.0 0.00 0.00 0.00 54 1018.1
20200404230654 48 270 8.0 9.0 0.00 0.00 0.00 54 1018.2
20200404230153 48 270 4.0 37.0 0.00 0.00 0.00 54 1018.2
20200404225653 48 247 5.0 8.0 0.00 0.00 0.00 54 1018.1
20200404225153 48 292 4.0 7.0 0.00 0.00 0.00 54 1018.1
20200404224652 48 292 7.0 7.0 0.00 0.00 0.00 54 1018.1
20200404224152 48 292 3.0 6.0 0.00 0.00 0.00 54 1018.0
20200404223652 48 292 5.0 6.0 0.00 0.00 0.00 54 1018.0
20200404223152 48 292 6.0 6.0 0.00 0.00 0.00 54 1017.9
20200404222651 48 270 2.0 5.0 0.00 0.00 0.00 53 1018.0
20200404222151 48 270 3.0 6.0 0.00 0.00 0.00 53 1018.0
20200404221651 48 270 3.0 6.0 0.00 0.00 0.00 53 1018.0
20200404221150 48 270 3.0 7.0 0.00 0.00 0.00 53 1018.0
20200404220650 48 270 4.0 5.0 0.00 0.00 0.00 53 1018.0
20200404220150 48 270 4.0 7.0 0.00 0.00 0.00 53 1018.0
20200404215650 48 292 4.0 6.0 0.00 0.00 0.00 53 1018.0
20200404215149 48 270 0.0 6.0 0.00 0.00 0.00 52 1017.9
20200404214649 49 292 4.0 6.0 0.00 0.00 0.00 52 1018.0
20200404214149 49 270 4.0 7.0 0.00 0.00 0.00 52 1018.0
20200404213648 49 270 4.0 6.0 0.00 0.00 0.00 51 1018.0
20200404213148 49 292 5.0 7.0 0.00 0.00 0.00 51 1018.0
20200404212648 49 270 5.0 7.0 0.00 0.00 0.00 51 1017.9
20200404212147 49 270 4.0 6.0 0.00 0.00 0.00 51 1017.9
20200404211647 49 270 5.0 6.0 0.00 0.00 0.00 51 1017.9
20200404211147 49 270 4.0 7.0 0.00 0.00 0.00 50 1017.9
20200404210647 49 270 4.0 6.0 0.00 0.00 0.00 50 1017.9
20200404210146 49 292 5.0 6.0 0.00 0.00 0.00 50 1017.8
20200404205646 50 270 2.0 5.0 0.00 0.00 0.00 50 1017.8
20200404205146 50 270 5.0 6.0 0.00 0.00 0.00 50 1017.8
20200404204645 49 292 2.0 5.0 0.00 0.00 0.00 50 1017.8
20200404204145 50 270 3.0 5.0 0.00 0.00 0.00 50 1017.9
20200404203645 49 270 5.0 8.0 0.00 0.00 0.00 50 1017.9
20200404203145 49 270 8.0 8.0 0.00 0.00 0.00 50 1018.0
20200404202644 49 270 2.0 8.0 0.00 0.00 0.00 50 1017.7
20200404202144 49 292 0.0 7.0 0.00 0.00 0.00 50 1017.7
20200404201644 49 292 2.0 4.0 0.00 0.00 0.00 49 1017.7
20200404201143 50 292 0.0 6.0 0.00 0.00 0.00 48 1017.7
20200404200643 50 270 2.0 5.0 0.00 0.00 0.00 48 1017.7
20200404200143 51 292 4.0 6.0 0.00 0.00 0.00 47 1017.7
20200404195642 51 270 5.0 9.0 0.00 0.00 0.00 47 1017.7
20200404195142 51 270 2.0 7.0 0.00 0.00 0.00 46 1017.7
20200404194642 51 292 3.0 5.0 0.00 0.00 0.00 46 1017.7
20200404194142 51 270 3.0 6.0 0.00 0.00 0.00 46 1017.7
20200404193641 51 292 3.0 5.0 0.00 0.00 0.00 46 1017.7
20200404193141 51 270 5.0 8.0 0.00 0.00 0.00 46 1017.7
20200404192641 51 292 4.0 6.0 0.00 0.00 0.00 46 1017.6
20200404192140 51 270 3.0 6.0 0.00 0.00 0.00 46 1017.5
20200404191640 51 270 2.0 5.0 0.00 0.00 0.00 46 1017.5
20200404191140 51 270 2.0 5.0 0.00 0.00 0.00 46 1017.4
20200404190640 52 247 5.0 5.0 0.00 0.00 0.00 45 1017.4
20200404190140 52 270 4.0 6.0 0.00 0.00 0.00 45 1017.4
20200404185639 52 270 3.0 5.0 0.00 0.00 0.00 45 1017.3
20200404185139 52 270 3.0 6.0 0.00 0.00 0.00 45 1017.2
20200404184638 52 270 3.0 6.0 0.00 0.00 0.00 44 1017.3
20200404184138 52 270 5.0 6.0 0.00 0.00 0.00 44 1017.3
20200404183638 53 292 8.0 8.0 0.00 0.00 0.00 44 1017.2
20200404183137 53 292 4.0 5.0 0.00 0.00 0.00 44 1017.2
20200404182637 53 270 2.0 6.0 0.00 0.00 0.00 44 1017.2
20200404182137 53 292 3.0 6.0 0.00 0.00 0.00 44 1017.2
20200404181636 53 270 5.0 9.0 0.00 0.00 0.00 43 1017.1
20200404181136 53 270 2.0 6.0 0.00 0.00 0.00 43 1017.0
20200404180636 54 270 3.0 6.0 0.00 0.00 0.00 42 1017.0
20200404180136 54 315 4.0 6.0 0.00 0.00 0.00 42 1016.9
20200404175635 55 270 0.0 9.0 0.00 0.00 0.00 41 1016.8
20200404175135 55 292 9.0 9.0 0.00 0.00 0.00 40 1016.9
20200404174635 56 270 4.0 5.0 0.00 0.00 0.00 40 1016.8
20200404174134 56 292 4.0 6.0 0.00 0.00 0.00 39 1016.8
20200404173634 57 292 5.0 8.0 0.00 0.00 0.00 38 1016.8
20200404173134 57 292 4.0 9.0 0.00 0.00 0.00 37 1016.7
20200404172634 58 247 0.0 7.0 0.00 0.00 0.00 37 1016.6
20200404172133 58 292 4.0 6.0 0.00 0.00 0.00 36 1016.6
20200404171633 58 337 0.0 6.0 0.00 0.00 0.00 36 1016.6
20200404171133 59 270 0.0 8.0 0.00 0.00 0.00 35 1016.5
20200404170632 59 292 4.0 8.0 0.00 0.00 0.00 35 1016.6
20200404170132 59 315 3.0 4.0 0.00 0.00 0.00 35 1016.6
20200404165632 59 270 3.0 6.0 0.00 0.00 0.00 35 1016.6
20200404165131 60 270 5.0 6.0 0.00 0.00 0.00 34 1016.6
20200404164631 60 270 5.0 6.0 0.00 0.00 0.00 33 1016.6
20200404164131 61 270 4.0 8.0 0.00 0.00 0.00 34 1016.6
20200404163631 61 270 5.0 5.0 0.00 0.00 0.00 33 1016.6
20200404163130 61 270 0.0 6.0 0.00 0.00 0.00 33 1016.6
20200404162630 61 270 7.0 9.0 0.00 0.00 0.00 33 1016.5
20200404162130 61 247 3.0 6.0 0.00 0.00 0.00 33 1016.6
20200404161629 62 270 5.0 7.0 0.00 0.00 0.00 33 1016.6
20200404161129 62 270 5.0 8.0 0.00 0.00 0.00 33 1016.6
20200404160629 62 292 5.0 5.0 0.00 0.00 0.00 32 1016.6
20200404160128 62 270 3.0 7.0 0.00 0.00 0.00 32 1016.8
20200404155628 62 112 0.0 5.0 0.00 0.00 0.00 33 1016.8
20200404155128 62 180 0.0 9.0 0.00 0.00 0.00 33 1016.8
20200404154628 63 270 4.0 5.0 0.00 0.00 0.00 32 1016.8
20200404154127 64 270 3.0 10.0 0.00 0.00 0.00 31 1016.7
20200404153627 66 157 0.0 4.0 0.00 0.00 0.00 31 1016.8
20200404153127 65 270 0.0 5.0 0.00 0.00 0.00 33 1016.8
20200404152626 64 0 5.0 5.0 0.00 0.00 0.00 33 1016.8
20200404152127 63 45 0.0 6.0 0.00 0.00 0.00 34 1016.8
20200404151626 63 270 3.0 7.0 0.00 0.00 0.00 34 1016.8
20200404151126 63 270 4.0 5.0 0.00 0.00 0.00 35 1016.9
20200404150625 61 270 0.0 10.0 0.00 0.00 0.00 36 1016.8
20200404150125 59 292 3.0 5.0 0.00 0.00 0.00 38 1016.8
20200404145625 56 247 0.0 4.0 0.00 0.00 0.00 40 1016.8
20200404145124 56 22 0.0 6.0 0.00 0.00 0.00 40 1016.9
20200404144624 55 270 4.0 5.0 0.00 0.00 0.00 41 1017.0
20200404144124 55 270 3.0 6.0 0.00 0.00 0.00 40 1017.0
20200404143623 55 270 0.0 6.0 0.00 0.00 0.00 40 1017.1
20200404143123 55 0 0.0 6.0 0.00 0.00 0.00 41 1017.0
20200404142623 55 225 0.0 3.0 0.00 0.00 0.00 41 1017.1
20200404142123 55 315 0.0 2.0 0.00 0.00 0.00 41 1017.2
20200404141622 55 90 0.0 4.0 0.00 0.00 0.00 41 1017.0
20200404141122 55 270 0.0 7.0 0.00 0.00 0.00 41 1017.2
20200404140622 55 0 0.0 7.0 0.00 0.00 0.00 41 1017.1
20200404140121 54 135 0.0 7.0 0.00 0.00 0.00 41 1017.2
20200404135621 55 247 4.0 4.0 0.00 0.00 0.00 42 1017.2
20200404135121 55 270 0.0 7.0 0.00 0.00 0.00 42 1017.2
20200404134621 55 292 0.0 8.0 0.00 0.00 0.00 42 1017.3
20200404134120 55 270 6.0 8.0 0.00 0.00 0.00 43 1017.3
20200404133620 54 292 4.0 7.0 0.00 0.00 0.00 43 1017.3
20200404133120 54 225 0.0 6.0 0.00 0.00 0.00 43 1017.3
20200404132619 0 270 2.0 5.0 0.00 0.00 0.00 1017.3
20200404132119 53 180 0.0 7.0 0.00 0.00 0.00 44 1017.4
20200404131619 53 247 2.0 8.0 0.00 0.00 0.00 43 1017.4
20200404131119 53 292 4.0 7.0 0.00 0.00 0.00 44 1017.6
20200404130618 53 135 0.0 6.0 0.00 0.00 0.00 44 1017.4
20200404130118 53 270 0.0 10.0 0.00 0.00 0.00 44 1017.4
20200404125618 53 292 10.0 10.0 0.00 0.00 0.00 44 1017.6
20200404125117 53 292 0.0 6.0 0.00 0.00 0.00 44 1017.3
20200404124617 53 270 0.0 4.0 0.00 0.00 0.00 44 1017.5
20200404124117 53 315 0.0 6.0 0.00 0.00 0.00 44 1017.5
20200404123617 53 202 0.0 0.0 0.00 0.00 0.00 45 1017.7
20200404123116 53 157 0.0 6.0 0.00 0.00 0.00 44 1017.7
20200404122616 53 270 4.0 7.0 0.00 0.00 0.00 44 1017.8
20200404122116 54 292 1.0 10.0 0.00 0.00 0.00 44 1017.9
20200404121615 54 0 4.0 6.0 0.00 0.00 0.00 44 1018.0
20200404121115 54 67 0.0 7.0 0.00 0.00 0.00 45 1017.9
20200404120615 53 112 0.0 5.0 0.00 0.00 0.00 45 1017.9
20200404120114 52 202 0.0 6.0 0.00 0.00 0.00 45 1017.9
20200404115614 53 270 0.0 6.0 0.00 0.00 0.00 44 1017.8
20200404115114 53 270 6.0 6.0 0.00 0.00 0.00 44 1017.8
20200404114614 54 67 0.0 9.0 0.00 0.00 0.00 44 1017.8
20200404114113 54 22 1.0 7.0 0.00 0.00 0.00 45 1017.9
20200404113613 53 0 0.0 7.0 0.00 0.00 0.00 45 1017.9
20200404113113 0 135 0.0 9.0 0.00 0.00 0.00 1018.0
20200404112612 53 315 1.0 6.0 0.00 0.00 0.00 45 1018.0
20200404112112 53 225 0.0 6.0 0.00 0.00 0.00 45 1018.0
20200404111612 52 270 0.0 0.0 0.00 0.00 0.00 45 1018.0
20200404111111 52 270 0.0 0.0 0.00 0.00 0.00 45 1018.1
20200404110611 52 270 0.0 6.0 0.00 0.00 0.00 45 1018.2
20200404110111 52 315 6.0 6.0 0.00 0.00 0.00 46 1018.2
20200404105611 52 270 0.0 0.0 0.00 0.00 0.00 46 1018.2
20200404105110 52 67 0.0 2.0 0.00 0.00 0.00 47 1018.2
20200404104610 52 225 0.0 5.0 0.00 0.00 0.00 47 1018.3
20200404104110 53 202 0.0 2.0 0.00 0.00 0.00 47 1018.4
20200404103609 53 67 0.0 8.0 0.00 0.00 0.00 48 1018.4
20200404103109 53 45 0.0 6.0 0.00 0.00 0.00 48 1018.3
20200404102609 52 45 0.0 7.0 0.00 0.00 0.00 48 1018.4
20200404102108 52 45 0.0 8.0 0.00 0.00 0.00 49 1018.4
20200404101608 52 22 3.0 9.0 0.00 0.00 0.00 50 1018.4
20200404101108 51 67 0.0 0.0 0.00 0.00 0.00 52 1018.6
20200404100608 50 45 0.0 0.0 0.00 0.00 0.00 54 1018.5
20200404100107 50 0 0.0 6.0 0.00 0.00 0.00 55 1018.7
20200404095607 50 337 0.0 6.0 0.00 0.00 0.00 55 1018.6
20200404095107 49 0 2.0 6.0 0.00 0.00 0.00 57 1018.5